Weather History for KIMT - May, 2013

Change the Weather History Date:

Monday, May 6, 2013

  Actual Average Record
Temperature  
Mean Temperature 55 °F -  
Max Temperature 77 °F 63 °F 87 °F (1934)
Min Temperature 33 °F 36 °F 20 °F (1970)
Degree Days  
Heating Degree Days 10    
Growing Degree Days 5 (Base 50)    
Moisture  
Dew Point 36 °F    
Average Humidity 52    
Maximum Humidity 93    
Minimum Humidity 21    
Precipitation  
Precipitation 0.00 in - - ()
Sea Level Pressure  
Sea Level Pressure 30.07 in    
Wind  
Wind Speed 4 mph (East)    
Max Wind Speed 10 mph    
Max Gust Speed -    
Visibility 10 miles    
Events      
Averages and records for this station are not official NWS values.
T = Trace of Precipitation, MM = Missing Value Source: NWS Daily Summary

Daily Weather History Graph

Daily Weather History Graph

Search for Another Location

Airport or City:

Trip Planner

Search our weather history database for the weather conditions in past years. The results will help you decide how hot, cold, wet, or windy it might be!

Date:

Astronomy

May. 06, 2013 Rise Set
Actual Time 5:32 AM CDT 8:06 PM CDT
Civil Twilight 4:58 AM CDT 8:40 PM CDT
Nautical Twilight 4:16 AM CDT 9:23 PM CDT
Astronomical Twilight 3:27 AM CDT 10:12 PM CDT
Moon 3:44 AM CDT (5/6) 4:58 PM CDT (5/6)
Length of Visible Light 15h 42m
Length of Day
14h 34m
Waning Crescent, 11% of the Moon is Illuminated
May 6
Waning Crescent
May 9
New
May 17
First Quarter
May 24
Full
May 31
Last Quarter

Hourly Weather History & Observations

Time (CDT) Temp. Windchill Dew Point Humidity Pressure Visibility Wind Dir Wind Speed Gust Speed Precip Events Conditions
12:54 AM 42.1 °F 38.4 °F 35.1 °F 76% 30.11 in 10.0 mi North 5.8 mph - N/A   Clear
1:54 AM 39.9 °F 35.8 °F 35.1 °F 83% 30.10 in 10.0 mi NW 5.8 mph - N/A   Clear
2:54 AM 39.0 °F 34.8 °F 35.1 °F 86% 30.09 in 10.0 mi NW 5.8 mph - N/A   Clear
3:54 AM 34.0 °F - 32.0 °F 92% 30.10 in 10.0 mi Calm Calm - N/A   Clear
4:54 AM 36.0 °F 32.1 °F 34.0 °F 93% 30.10 in 10.0 mi NW 4.6 mph - N/A   Clear
5:54 AM 33.1 °F - 30.9 °F 92% 30.12 in 10.0 mi Calm Calm - N/A   Clear
6:54 AM 39.9 °F - 36.0 °F 86% 30.13 in 10.0 mi Calm Calm - N/A   Clear
7:54 AM 46.9 °F - 37.9 °F 71% 30.12 in 10.0 mi Calm Calm - N/A   Clear
8:54 AM 55.9 °F - 39.9 °F 55% 30.12 in 10.0 mi Calm Calm - N/A   Clear
9:54 AM 60.1 °F - 39.9 °F 47% 30.12 in 10.0 mi Calm Calm - N/A   Clear
10:54 AM 66.0 °F - 39.9 °F 38% 30.10 in 10.0 mi Variable 3.5 mph - N/A   Clear
11:54 AM 71.1 °F - 37.0 °F 29% 30.09 in 10.0 mi Calm Calm - N/A   Clear
12:54 PM 73.9 °F - 37.9 °F 27% 30.06 in 10.0 mi ESE 9.2 mph - N/A   Clear
1:54 PM 73.9 °F - 35.1 °F 24% 30.05 in 10.0 mi Variable 5.8 mph - N/A   Clear
2:54 PM 75.9 °F - 35.1 °F 23% 30.03 in 10.0 mi SSW 8.1 mph - N/A   Clear
3:54 PM 77.0 °F - 34.0 °F 21% 30.01 in 10.0 mi ESE 9.2 mph - N/A   Clear
4:54 PM 75.9 °F - 35.1 °F 23% 30.00 in 10.0 mi SE 9.2 mph - N/A   Clear
5:54 PM 75.0 °F - 37.0 °F 25% 30.00 in 10.0 mi SSE 9.2 mph - N/A   Clear
6:54 PM 72.0 °F - 36.0 °F 27% 29.99 in 10.0 mi SSE 10.4 mph - N/A   Clear
7:54 PM 69.1 °F - 35.1 °F 29% 30.01 in 10.0 mi East 3.5 mph - N/A   Clear
8:54 PM 60.1 °F - 37.0 °F 42% 30.04 in 10.0 mi NE 4.6 mph - N/A   Clear
9:54 PM 60.1 °F - 37.9 °F 44% 30.06 in 10.0 mi ENE 5.8 mph - N/A   Clear
10:54 PM 52.0 °F - 39.9 °F 63% 30.06 in 10.0 mi Calm Calm - N/A   Clear
11:54 PM 50.0 °F - 37.9 °F 63% 30.06 in 10.0 mi Calm Calm - N/A   Clear